[[{"header":{"parameterUnit":"m.s-1","parameterCategory":2,"la1":30.2991,"la2":30.254,"lo1":-89.0895,"lo2":-89.0444,"dy":0.0017,"dx":0.0017,"nx":28,"ny":28,"refTime":"2025-11-07T09:00:00:Z","depth":"0","parameterNumber":2,"parameterNumberName":"U-component_of_CURRENTS"},"data":[0,0,0,0,0,0,0,0,0,0,0,0,0,0,0,0,0,0,0,0,0,0,0,0,0,0,0,0,0,0,0,0,0,0,0,0,0,0,0,0,0,0,0,0,0,0,0,0,0,0,0,0,0,0,0,0,0,0,-0.2754,-0.2754,0,-0.2741,-0.2741,-0.274,-0.2739,-0.2739,-0.274,-0.274,-0.2697,-0.2696,-0.2694,0,0,0,0,0,0,0,0,0,0,0,0,0,-0.2787,-0.2786,-0.2754,-0.2754,-0.2754,-0.2741,-0.2741,-0.274,-0.2739,-0.2739,-0.274,-0.274,-0.2698,-0.2696,-0.2694,0,0,0,0,0,0,0,0,0,0,0,0,0,-0.2771,-0.2786,-0.2754,-0.2754,-0.2754,-0.2741,-0.2741,-0.274,-0.2739,-0.2739,-0.274,-0.2741,-0.2698,-0.2696,-0.2694,-0.2668,0,0,-0.2687,-0.2686,0,0,0,0,0,0,0,0,-0.2771,-0.2769,-0.2754,-0.2754,-0.2754,-0.2745,-0.2737,-0.2716,-0.2739,-0.2742,-0.274,-0.2741,-0.2712,-0.2708,-0.2701,-0.2666,-0.2664,-0.2687,-0.2686,-0.2685,-0.2684,0,0,0,0,0,0,0,-0.2773,-0.277,-0.2746,-0.2754,-0.2754,-0.2758,-0.2756,-0.2733,-0.2721,-0.2742,-0.2742,-0.2745,-0.2711,-0.2703,-0.27,-0.2664,-0.2687,-0.2685,-0.2684,-0.2683,-0.2657,-0.2657,0,0,0,0,0,0,-0.2778,-0.2771,-0.2747,-0.2746,-0.2768,-0.2757,-0.2755,-0.2745,-0.2722,-0.272,-0.2744,-0.2745,-0.2707,-0.2703,-0.2699,-0.2705,-0.2685,-0.2682,-0.2681,-0.2656,-0.2657,-0.2658,0,0,0,0,0,0,-0.2779,-0.2776,-0.2747,-0.2761,-0.2758,-0.2756,-0.2745,-0.2744,-0.2739,-0.2725,-0.2722,-0.2741,-0.2707,-0.2702,-0.2693,-0.2702,-0.2681,-0.2679,-0.2655,-0.2656,-0.2657,-0.2692,0,0,0,0,0,0,-0.278,-0.2776,-0.2761,-0.2761,-0.2758,-0.2747,-0.2745,-0.2744,-0.2741,-0.2741,-0.272,-0.2717,-0.2707,-0.2697,-0.2691,-0.2698,-0.2678,-0.2654,-0.2656,-0.2657,-0.269,-0.2694,-0.2698,0,0,0,0,0,-0.2781,-0.2755,-0.276,-0.2757,-0.274,-0.2748,-0.2746,-0.2745,-0.274,-0.2741,-0.2733,-0.2718,-0.2701,-0.2695,-0.2688,-0.2695,-0.2654,-0.2655,-0.2657,-0.2689,-0.2694,-0.2698,0,0,0,0,0,0,-0.2747,-0.2753,-0.2758,-0.2731,-0.2746,-0.2749,-0.2737,-0.2743,-0.2735,-0.2731,-0.2719,-0.2715,-0.2715,-0.2698,-0.2692,-0.2693,-0.2677,-0.2677,-0.2704,-0.2708,-0.2712,-0.2714,-0.2676,0,0,0,0,0,-0.2737,-0.2722,-0.2741,-0.2717,-0.2726,-0.2733,-0.2731,-0.2739,-0.2738,-0.2734,-0.2725,-0.2716,-0.2714,-0.2706,-0.2699,-0.2688,-0.2663,-0.2691,-0.2695,-0.2698,-0.2697,-0.2684,-0.2686,-0.2663,-0.2663,-0.2662,0,0,-0.2709,-0.2716,-0.2701,-0.271,-0.2715,-0.2735,-0.2732,-0.2734,-0.275,-0.2729,-0.2733,-0.2726,-0.2715,-0.2717,-0.2714,-0.2703,-0.2688,-0.27,-0.2703,-0.27,-0.2686,-0.2688,-0.269,-0.2664,-0.2663,-0.2663,0,0,-0.2675,-0.2664,-0.2658,-0.2681,-0.2705,-0.2718,-0.2723,-0.2738,-0.2744,-0.275,-0.2748,-0.2747,-0.2732,-0.2735,-0.2732,-0.2747,-0.2712,-0.2747,-0.2761,-0.2749,-0.275,-0.2752,-0.2702,-0.2698,-0.2745,-0.2745,-0.2745,0,-0.2644,-0.2647,-0.2656,-0.2679,-0.2697,-0.2716,-0.2736,-0.2746,-0.2757,-0.2763,-0.2756,-0.2755,-0.2742,-0.2754,-0.2764,-0.2755,-0.2731,-0.2744,-0.2753,-0.2754,-0.2754,-0.2703,-0.2699,-0.2747,-0.2747,-0.2747,-0.2746,0,-0.2631,-0.264,-0.2639,-0.2679,-0.27,-0.2712,-0.2751,-0.2765,-0.2772,-0.2784,-0.2796,-0.2785,-0.2783,-0.2785,-0.2776,-0.2783,-0.2757,-0.2762,-0.274,-0.2759,-0.2704,-0.2698,-0.275,-0.2749,-0.2748,-0.2748,0,0,-0.2538,-0.2615,-0.2613,-0.2647,-0.2705,-0.2719,-0.2755,-0.2791,-0.2803,-0.2817,-0.2823,-0.2832,-0.2824,-0.2821,-0.2814,-0.2804,-0.2778,-0.2785,-0.2783,-0.2732,-0.2722,-0.2611,-0.2594,-0.2788,-0.2788,-0.2788,-0.2674,0,-0.2524,-0.2572,-0.2614,-0.2655,-0.2686,-0.2735,-0.2766,-0.2803,-0.282,-0.2829,-0.2834,-0.2833,-0.284,-0.283,-0.2828,-0.2794,-0.2769,-0.2806,-0.2714,-0.2711,-0.2608,-0.2587,-0.2467,-0.2347,-0.2668,-0.2668,-0.2667,0,-0.2497,-0.254,-0.2583,-0.2663,-0.2678,-0.2705,-0.2757,-0.279,-0.2823,-0.2833,-0.2849,-0.2847,-0.2842,-0.2836,-0.2794,-0.2818,-0.277,-0.274,-0.2736,-0.2617,-0.2591,-0.2385,-0.2325,-0.2319,-0.2659,-0.2659,-0.266,0,-0.2434,-0.2512,-0.2546,-0.2575,-0.2667,-0.2688,-0.2728,-0.2779,-0.2802,-0.2826,-0.2829,-0.284,-0.282,-0.2796,-0.2736,-0.2765,-0.2662,-0.2693,-0.2546,-0.2537,-0.2406,-0.2385,-0.2326,-0.265,-0.265,-0.2651,-0.2651,0,-0.2402,-0.2423,-0.2518,-0.2538,-0.2567,-0.2649,-0.2673,-0.2715,-0.2763,-0.277,-0.2817,-0.2802,-0.2811,-0.2759,-0.2719,-0.2594,-0.2646,-0.253,-0.25,-0.2412,-0.2393,-0.236,-0.2406,-0.2646,-0.2647,-0.2648,-0.2649,0,-0.2312,-0.2384,-0.2422,-0.2515,-0.2538,-0.2551,-0.2633,-0.2649,-0.2713,-0.2719,-0.2724,-0.2757,-0.2683,-0.2657,-0.2582,-0.2543,-0.2402,-0.2394,-0.2266,-0.2223,-0.2092,-0.2144,-0.206,-0.2002,-0.222,-0.2216,-0.2214,0,-0.2269,-0.228,-0.237,-0.2383,-0.2417,-0.2463,-0.2489,-0.2592,-0.2619,-0.2673,-0.2659,-0.2618,-0.2536,-0.2388,-0.2299,-0.2175,-0.2233,-0.2026,-0.2067,-0.2044,-0.2083,-0.2146,-0.211,-0.19,-0.1895,-0.189,-0.1887,0,-0.2163,-0.2191,-0.222,-0.2259,-0.229,-0.2334,-0.2388,-0.241,-0.2515,-0.2513,-0.2473,-0.2406,-0.2275,-0.209,-0.196,-0.1892,-0.1985,-0.1933,-0.1953,-0.1852,-0.1874,-0.1815,-0.2006,-0.1849,-0.1853,-0.1855,-0.1857,-0.1859,-0.2056,-0.2042,-0.2081,-0.21,-0.2144,-0.2174,-0.2114,-0.2192,-0.2189,-0.2108,-0.2228,-0.204,-0.1968,-0.1748,-0.1674,-0.1554,-0.1668,-0.1543,-0.1611,-0.168,-0.1618,-0.1699,-0.1491,-0.1493,-0.1494,-0.1496,-0.1497,0,-0.1917,-0.1912,-0.192,-0.1939,-0.1905,-0.1989,-0.2002,-0.1888,-0.1783,-0.1765,-0.1682,-0.161,-0.1467,-0.1417,-0.134,-0.1276,-0.128,-0.1278,-0.1363,-0.1343,-0.1427,-0.1406,-0.1116,-0.1117,-0.1117,-0.1117,-0.1117,-0.1117,-0.1842,-0.1781,-0.1785,-0.1683,-0.1675,-0.1523,-0.1461,-0.1348,-0.1257,-0.1067,-0.0983,-0.0973,-0.1142,-0.1335,-0.1275,-0.1205,-0.1225,-0.1173,-0.1241,-0.1338,-0.137,-0.1401,-0.139,-0.1102,-0.1103,-0.1087,-0.1087,-0.1087]},{"header":{"parameterUnit":"m.s-1","parameterCategory":2,"la1":30.2991,"la2":30.254,"lo1":-89.0895,"lo2":-89.0444,"dy":0.0017,"dx":0.0017,"nx":28,"ny":28,"refTime":"2025-11-07T09:00:00:Z","depth":"0","parameterNumber":3,"parameterNumberName":"V-component_of_CURRENTS"},"data":[0,0,0,0,0,0,0,0,0,0,0,0,0,0,0,0,0,0,0,0,0,0,0,0,0,0,0,0,0,0,0,0,0,0,0,0,0,0,0,0,0,0,0,0,0,0,0,0,0,0,0,0,0,0,0,0,0,0,-0.0153,-0.0152,0,-0.0052,-0.0051,-0.005,0.003,0.0031,0.0031,0.0032,0.0177,0.018,0.0183,0,0,0,0,0,0,0,0,0,0,0,0,0,-0.0207,-0.0207,-0.0153,-0.0152,-0.0151,-0.0053,-0.0051,-0.005,0.003,0.0031,0.0032,0.0032,0.0175,0.0179,0.0183,0,0,0,0,0,0,0,0,0,0,0,0,0,-0.0152,-0.0207,-0.0154,-0.01,-0.0094,-0.0053,-0.0051,-0.0049,0.003,0.0031,0.0032,0.0033,0.0174,0.0179,0.0184,0.0191,0,0,0.0198,0.02,0,0,0,0,0,0,0,0,-0.0156,-0.015,-0.0109,-0.0104,-0.0097,-0.0023,-0.0017,0.0033,0.0029,-0.0017,0.0032,0.0033,0.0112,0.0122,0.0139,0.0198,0.0204,0.0199,0.0201,0.0203,0.0205,0,0,0,0,0,0,0,-0.016,-0.0154,-0.0112,-0.0108,-0.0101,-0.0057,-0.0049,-0.0007,0.0042,-0.0012,-0.0007,0.0003,0.0116,0.0135,0.0144,0.0207,0.0198,0.0203,0.0206,0.0207,0.0315,0.0315,0,0,0,0,0,0,-0.0179,-0.0158,-0.0116,-0.011,-0.0125,-0.0057,-0.0048,-0.0048,0.0041,0.0055,0.0002,0.0006,0.0126,0.0138,0.0149,0.0178,0.0203,0.0208,0.0211,0.0315,0.0315,0.0315,0,0,0,0,0,0,-0.018,-0.0176,-0.012,-0.0131,-0.0121,-0.0058,-0.0058,-0.0046,-0.0026,0.0051,0.0066,0.001,0.0127,0.0142,0.0188,0.0184,0.021,0.0214,0.0315,0.0315,0.0315,0.0227,0,0,0,0,0,0,-0.0183,-0.0178,-0.019,-0.0133,-0.0121,-0.0102,-0.0059,-0.0045,-0.0022,-0.0015,0.0063,0.0078,0.0129,0.018,0.0192,0.0191,0.0218,0.0315,0.0315,0.0315,0.023,0.0224,0.0219,0,0,0,0,0,-0.0185,-0.0205,-0.0191,-0.0186,-0.0138,-0.0103,-0.0093,-0.0043,-0.0023,-0.002,0.0036,0.0075,0.0189,0.0184,0.0198,0.0198,0.0315,0.0315,0.0315,0.0232,0.0225,0.0219,0,0,0,0,0,0,-0.0239,-0.0197,-0.0181,-0.0189,-0.0153,-0.009,-0.0085,-0.0052,-0.0007,0.0001,0.0073,0.0091,0.013,0.0175,0.0167,0.023,0.0259,0.0262,0.0192,0.0186,0.018,0.0165,0.0222,0,0,0,0,0,-0.0258,-0.026,-0.0211,-0.0219,-0.0204,-0.0148,-0.013,-0.0096,-0.0046,-0.0025,0.003,0.009,0.014,0.017,0.022,0.025,0.0306,0.0261,0.0255,0.025,0.0249,0.0333,0.0335,0.0314,0.0314,0.0314,0,0,-0.0283,-0.0261,-0.0263,-0.0231,-0.0198,-0.0185,-0.0134,-0.0111,-0.0096,-0.0017,0.0015,0.007,0.0144,0.0182,0.0203,0.0219,0.0283,0.025,0.0245,0.0247,0.0333,0.0335,0.0337,0.0314,0.0314,0.0314,0,0,-0.0327,-0.0313,-0.0324,-0.0299,-0.0258,-0.022,-0.0219,-0.016,-0.0129,-0.0094,-0.0031,0.0021,0.0092,0.0149,0.0186,0.018,0.0249,0.0193,0.0156,0.0237,0.0239,0.0242,0.0303,0.0312,0.0192,0.0192,0.0192,0,-0.0359,-0.0367,-0.0322,-0.0322,-0.0309,-0.0242,-0.0247,-0.0208,-0.0142,-0.0115,-0.0095,0.0023,0.0079,0.0141,0.0138,0.0167,0.0218,0.0171,0.0229,0.0233,0.0238,0.03,0.0311,0.0188,0.0189,0.0189,0.0189,0,-0.0401,-0.0409,-0.0414,-0.0392,-0.0372,-0.0367,-0.0307,-0.028,-0.0237,-0.0187,-0.0122,-0.0041,0.0031,0.0055,0.0094,0.015,0.0176,0.0209,0.0241,0.0234,0.03,0.0313,0.0182,0.0183,0.0185,0.0186,0,0,-0.0464,-0.0449,-0.0451,-0.0456,-0.041,-0.0396,-0.0372,-0.0323,-0.0297,-0.0229,-0.0189,-0.0103,-0.0052,-0.0007,0.0055,0.0122,0.0188,0.0167,0.0173,0.0218,0.0356,0.039,0.0408,0.0231,0.0233,0.0235,0.0384,0,-0.051,-0.0541,-0.0509,-0.053,-0.054,-0.0475,-0.0456,-0.04,-0.0336,-0.0279,-0.0183,-0.0122,-0.0077,-0.0043,0.0029,0.0152,0.022,0.0143,0.0364,0.037,0.0395,0.0424,0.0479,0.062,0.0398,0.04,0.0402,0,-0.0558,-0.0574,-0.0611,-0.0601,-0.0596,-0.0592,-0.054,-0.0511,-0.0409,-0.0357,-0.0274,-0.0192,-0.0092,-0.0051,0.015,0.0098,0.0213,0.0309,0.0318,0.0391,0.043,0.0596,0.0653,0.0816,0.0423,0.0421,0.0419,0,-0.0628,-0.0641,-0.0676,-0.0675,-0.065,-0.0646,-0.0623,-0.0539,-0.0505,-0.0402,-0.0357,-0.0227,-0.0147,0.0003,0.019,0.0175,0.0421,0.0432,0.0573,0.0576,0.0689,0.0698,0.0926,0.058,0.058,0.0579,0.0579,0,-0.0693,-0.0718,-0.0715,-0.0736,-0.0765,-0.0716,-0.0711,-0.0661,-0.0577,-0.0517,-0.0407,-0.0322,-0.0125,0.0038,0.0189,0.0425,0.0428,0.0576,0.0626,0.0658,0.0662,0.0862,0.0904,0.0585,0.0584,0.0583,0.0582,0,-0.0761,-0.0761,-0.0802,-0.0801,-0.0803,-0.0821,-0.0786,-0.0768,-0.0679,-0.0595,-0.0565,-0.0378,-0.0157,0.0045,0.0315,0.0439,0.0758,0.0731,0.0741,0.0788,0.104,0.1073,0.1325,0.1436,0.0899,0.0901,0.0903,0,-0.0795,-0.0829,-0.0863,-0.0892,-0.0896,-0.0909,-0.091,-0.0836,-0.0794,-0.0609,-0.0565,-0.0345,-0.0149,0.0233,0.0485,0.0762,0.0882,0.0962,0.0942,0.1076,0.1151,0.1167,0.1242,0.1058,0.1061,0.1063,0.1065,0,-0.0856,-0.0871,-0.0907,-0.0973,-0.0998,-0.1008,-0.0989,-0.0958,-0.0827,-0.0687,-0.0474,-0.0305,0.003,0.0378,0.0707,0.0872,0.1082,0.1014,0.1179,0.1314,0.1327,0.1449,0.0916,0.1085,0.1083,0.1082,0.108,0.108,-0.0876,-0.0932,-0.0979,-0.1028,-0.1067,-0.1052,-0.0987,-0.0901,-0.0749,-0.0428,-0.0363,0.0024,0.0311,0.0789,0.096,0.1328,0.1269,0.145,0.1485,0.1494,0.1589,0.1077,0.1279,0.1279,0.1278,0.1277,0.1277,0,-0.0846,-0.0935,-0.102,-0.1047,-0.1056,-0.1066,-0.0987,-0.0851,-0.0577,-0.0269,0.002,0.0508,0.0895,0.1185,0.1594,0.1795,0.184,0.1898,0.1959,0.2019,0.1614,0.161,0.1862,0.1862,0.1862,0.1862,0.1862,0.1861,-0.0818,-0.0906,-0.0966,-0.099,-0.1,-0.0899,-0.0803,-0.0594,-0.0349,0.0198,0.0629,0.0882,0.1202,0.1769,0.2181,0.2227,0.2416,0.2385,0.2481,0.2213,0.2174,0.2137,0.2148,0.2509,0.251,0.2905,0.2908,0.2911]}],[{"header":{"parameterUnit":"m.s-1","parameterCategory":2,"la1":30.2991,"la2":30.254,"lo1":-89.0895,"lo2":-89.0444,"dy":0.0017,"dx":0.0017,"nx":28,"ny":28,"refTime":"2025-11-07T09:00:00:Z","depth":"2","parameterNumber":2,"parameterNumberName":"U-component_of_CURRENTS"},"data":[0,0,0,0,0,0,0,0,0,0,0,0,0,0,0,0,0,0,0,0,0,0,0,0,0,0,0,0,0,0,0,0,0,0,0,0,0,0,0,0,0,0,0,0,0,0,0,0,0,0,0,0,0,0,0,0,0,0,-0.2547,-0.2547,0,-0.2567,-0.2567,-0.2567,-0.2565,-0.2565,-0.2565,-0.2565,-0.2544,-0.2544,-0.2543,0,0,0,0,0,0,0,0,0,0,0,0,0,-0.2458,-0.246,-0.2547,-0.2547,-0.2548,-0.2567,-0.2567,-0.2567,-0.2565,-0.2565,-0.2565,-0.2565,-0.2545,-0.2544,-0.2543,0,0,0,0,0,0,0,0,0,0,0,0,0,-0.2487,-0.246,-0.2547,-0.2551,-0.2552,-0.2567,-0.2567,-0.2567,-0.2565,-0.2565,-0.2565,-0.2565,-0.2545,-0.2544,-0.2543,-0.254,0,0,-0.2541,-0.2541,0,0,0,0,0,0,0,0,-0.2485,-0.249,-0.255,-0.2551,-0.2552,-0.2566,-0.2528,-0.2557,-0.2565,-0.2557,-0.2565,-0.2565,-0.255,-0.2549,-0.2549,-0.2539,-0.2539,-0.2541,-0.2541,-0.254,-0.254,0,0,0,0,0,0,0,-0.2483,-0.2488,-0.2552,-0.2551,-0.2552,-0.2536,-0.254,-0.2534,-0.2551,-0.2558,-0.2558,-0.2565,-0.255,-0.255,-0.2548,-0.2538,-0.2541,-0.254,-0.254,-0.254,-0.2554,-0.2555,0,0,0,0,0,0,-0.249,-0.2487,-0.2551,-0.2553,-0.2521,-0.2538,-0.2542,-0.2559,-0.2552,-0.2551,-0.2565,-0.2565,-0.2551,-0.2549,-0.2548,-0.2567,-0.254,-0.254,-0.2539,-0.2553,-0.2554,-0.2555,0,0,0,0,0,0,-0.2488,-0.2496,-0.255,-0.2522,-0.2528,-0.254,-0.2559,-0.256,-0.2565,-0.2558,-0.2557,-0.257,-0.2551,-0.2549,-0.2553,-0.2565,-0.2539,-0.2539,-0.2552,-0.2553,-0.2554,-0.259,0,0,0,0,0,0,-0.2485,-0.2495,-0.2506,-0.2523,-0.253,-0.2566,-0.2559,-0.256,-0.257,-0.257,-0.2562,-0.256,-0.2551,-0.2555,-0.2553,-0.2563,-0.2538,-0.2551,-0.2553,-0.2554,-0.2587,-0.2592,-0.2596,0,0,0,0,0,-0.2482,-0.2496,-0.2506,-0.2514,-0.2546,-0.2567,-0.2569,-0.2574,-0.2571,-0.2577,-0.2574,-0.256,-0.2563,-0.2555,-0.2552,-0.2563,-0.255,-0.2552,-0.2554,-0.2586,-0.2591,-0.2596,0,0,0,0,0,0,-0.2461,-0.2498,-0.2509,-0.2534,-0.2554,-0.2568,-0.2571,-0.2578,-0.2581,-0.2578,-0.2569,-0.2567,-0.2577,-0.2566,-0.2557,-0.2573,-0.2555,-0.2556,-0.258,-0.2585,-0.2589,-0.259,-0.2537,0,0,0,0,0,-0.2464,-0.2482,-0.2516,-0.2533,-0.2544,-0.2559,-0.2566,-0.2576,-0.2583,-0.2584,-0.2581,-0.2578,-0.2582,-0.258,-0.258,-0.2585,-0.2561,-0.2591,-0.2595,-0.2599,-0.2599,-0.2588,-0.2591,-0.2561,-0.2561,-0.2561,0,0,-0.2458,-0.2481,-0.249,-0.2529,-0.254,-0.2565,-0.2562,-0.2579,-0.2598,-0.2581,-0.2595,-0.2593,-0.2588,-0.2599,-0.2602,-0.259,-0.2592,-0.2601,-0.2604,-0.2602,-0.259,-0.2593,-0.2595,-0.2562,-0.2562,-0.2562,0,0,-0.2451,-0.2478,-0.2491,-0.2516,-0.2547,-0.2563,-0.2572,-0.2595,-0.2603,-0.2621,-0.2617,-0.2622,-0.2623,-0.2625,-0.2625,-0.265,-0.2617,-0.2653,-0.2669,-0.2659,-0.2661,-0.2663,-0.2618,-0.2616,-0.2651,-0.2651,-0.2651,0,-0.2441,-0.2473,-0.2496,-0.2522,-0.2544,-0.2566,-0.259,-0.2606,-0.2627,-0.2636,-0.2629,-0.2643,-0.2635,-0.2653,-0.2663,-0.2659,-0.2637,-0.265,-0.2664,-0.2665,-0.2666,-0.262,-0.2617,-0.2653,-0.2653,-0.2653,-0.2652,0,-0.245,-0.2481,-0.249,-0.2535,-0.256,-0.2583,-0.262,-0.264,-0.2651,-0.2665,-0.2685,-0.268,-0.2685,-0.2689,-0.2682,-0.2694,-0.2669,-0.2672,-0.2649,-0.2671,-0.2621,-0.2617,-0.2656,-0.2655,-0.2655,-0.2654,0,0,-0.2402,-0.2482,-0.2482,-0.2512,-0.2572,-0.2591,-0.2632,-0.267,-0.2686,-0.2707,-0.2718,-0.2735,-0.273,-0.2729,-0.2725,-0.2717,-0.2698,-0.2699,-0.2697,-0.265,-0.2649,-0.2543,-0.2528,-0.2706,-0.2706,-0.2706,-0.2604,0,-0.2398,-0.2449,-0.2491,-0.2537,-0.2569,-0.2617,-0.2651,-0.2689,-0.271,-0.2725,-0.2734,-0.2741,-0.2747,-0.2742,-0.2742,-0.2711,-0.2692,-0.2723,-0.2639,-0.2636,-0.2535,-0.2522,-0.2351,-0.2239,-0.26,-0.2599,-0.2599,0,-0.2384,-0.2426,-0.2473,-0.255,-0.2566,-0.2596,-0.265,-0.2685,-0.2723,-0.2737,-0.2757,-0.2759,-0.2759,-0.2753,-0.2718,-0.2738,-0.2696,-0.2669,-0.2665,-0.2551,-0.2522,-0.228,-0.2218,-0.2591,-0.2592,-0.2593,-0.2593,0,-0.2329,-0.2407,-0.2445,-0.2473,-0.2561,-0.2585,-0.2626,-0.2679,-0.2703,-0.2736,-0.2742,-0.2757,-0.2744,-0.2722,-0.2669,-0.2694,-0.2605,-0.2629,-0.2492,-0.2483,-0.2312,-0.2287,-0.2594,-0.2594,-0.2594,-0.2595,-0.2595,0,-0.2307,-0.233,-0.2421,-0.2441,-0.2474,-0.2551,-0.2581,-0.2624,-0.2674,-0.2684,-0.2735,-0.2725,-0.2737,-0.2693,-0.2656,-0.254,-0.2591,-0.2479,-0.245,-0.2316,-0.2295,-0.259,-0.2591,-0.2591,-0.2592,-0.2592,-0.2593,0,-0.2229,-0.2297,-0.2337,-0.2426,-0.2449,-0.2466,-0.2546,-0.2564,-0.263,-0.264,-0.2648,-0.2687,-0.2621,-0.2599,-0.2534,-0.2496,-0.2413,-0.2359,-0.2182,-0.2134,-0.2302,-0.2306,-0.2202,-0.2197,-0.2194,-0.219,-0.2188,0,-0.2191,-0.2207,-0.2293,-0.2306,-0.2341,-0.2387,-0.2413,-0.2514,-0.2537,-0.2597,-0.2583,-0.2555,-0.2482,-0.235,-0.2261,-0.2144,-0.2263,-0.1956,-0.198,-0.2279,-0.2262,-0.2273,-0.2282,-0.1758,-0.1752,-0.1747,-0.1743,0,-0.21,-0.2131,-0.2159,-0.2193,-0.2224,-0.2265,-0.2315,-0.2333,-0.2434,-0.2449,-0.2422,-0.2368,-0.2236,-0.2032,-0.1908,-0.1838,-0.1966,-0.1851,-0.2194,-0.1892,-0.1855,-0.1841,-0.1865,-0.1699,-0.1704,-0.1707,-0.1709,-0.1711,-0.2001,-0.1996,-0.2032,-0.2042,-0.2088,-0.2109,-0.2076,-0.2164,-0.2178,-0.2179,-0.2206,-0.206,-0.1981,-0.1676,-0.1562,-0.1488,-0.1633,-0.1597,-0.1615,-0.1638,-0.1613,-0.1572,-0.1356,-0.1358,-0.136,-0.1362,-0.1364,0,-0.1861,-0.1868,-0.1875,-0.1876,-0.1846,-0.1942,-0.197,-0.1907,-0.1873,-0.1956,-0.1904,-0.1592,-0.1431,-0.1358,-0.116,-0.1122,-0.114,-0.1096,-0.1133,-0.1176,-0.1214,-0.1171,-0.0795,-0.0794,-0.0792,-0.0791,0,0,-0.1785,-0.1739,-0.1738,-0.1622,-0.1623,-0.1541,-0.1523,-0.1496,-0.1506,-0.1462,-0.141,-0.1458,-0.1359,-0.1101,-0.1023,-0.0891,-0.1044,-0.0847,-0.1302,-0.1393,-0.1431,-0.1493,-0.1472,0,0,0,0,0]},{"header":{"parameterUnit":"m.s-1","parameterCategory":2,"la1":30.2991,"la2":30.254,"lo1":-89.0895,"lo2":-89.0444,"dy":0.0017,"dx":0.0017,"nx":28,"ny":28,"refTime":"2025-11-07T09:00:00:Z","depth":"2","parameterNumber":3,"parameterNumberName":"V-component_of_CURRENTS"},"data":[0,0,0,0,0,0,0,0,0,0,0,0,0,0,0,0,0,0,0,0,0,0,0,0,0,0,0,0,0,0,0,0,0,0,0,0,0,0,0,0,0,0,0,0,0,0,0,0,0,0,0,0,0,0,0,0,0,0,-0.029,-0.0288,0,-0.018,-0.0179,-0.0178,-0.0117,-0.0116,-0.0116,-0.0116,0.0024,0.0027,0.0031,0,0,0,0,0,0,0,0,0,0,0,0,0,-0.0399,-0.0398,-0.029,-0.0288,-0.0287,-0.018,-0.0179,-0.0178,-0.0117,-0.0116,-0.0116,-0.0116,0.0023,0.0027,0.0031,0,0,0,0,0,0,0,0,0,0,0,0,0,-0.0327,-0.0398,-0.029,-0.0244,-0.0238,-0.0181,-0.0179,-0.0177,-0.0117,-0.0116,-0.0116,-0.0116,0.0021,0.0026,0.0032,0.0058,0,0,0.0048,0.005,0,0,0,0,0,0,0,0,-0.0332,-0.0324,-0.0252,-0.0247,-0.0241,-0.0162,-0.0166,-0.0097,-0.0117,-0.0163,-0.0116,-0.0116,-0.0035,-0.0025,-0.0006,0.0065,0.0071,0.0048,0.0052,0.0054,0.0055,0,0,0,0,0,0,0,-0.0337,-0.0328,-0.0247,-0.025,-0.0244,-0.0212,-0.0202,-0.0153,-0.0102,-0.0159,-0.0154,-0.0142,-0.0032,-0.0012,-0.0002,0.0073,0.0048,0.0053,0.0056,0.0058,0.0182,0.0182,0,0,0,0,0,0,-0.0352,-0.0333,-0.025,-0.0243,-0.0286,-0.0211,-0.0199,-0.0187,-0.0103,-0.009,-0.0142,-0.014,-0.0021,-0.0009,0.0003,0.0037,0.0054,0.0059,0.0062,0.0182,0.0182,0.0182,0,0,0,0,0,0,-0.0355,-0.0346,-0.0254,-0.0285,-0.0271,-0.021,-0.0196,-0.0185,-0.0164,-0.0091,-0.0077,-0.0132,-0.002,-0.0005,0.0044,0.0043,0.0061,0.0066,0.0182,0.0182,0.0182,0.0107,0,0,0,0,0,0,-0.0359,-0.0348,-0.0346,-0.0286,-0.027,-0.0229,-0.0196,-0.0184,-0.0157,-0.0152,-0.0077,-0.0064,-0.0019,0.0035,0.0049,0.005,0.007,0.0182,0.0182,0.0182,0.0109,0.0104,0.01,0,0,0,0,0,-0.0363,-0.0362,-0.0346,-0.0336,-0.0269,-0.0229,-0.0218,-0.0173,-0.0157,-0.0152,-0.01,-0.0066,0.0046,0.004,0.0056,0.0059,0.0182,0.0182,0.0182,0.0111,0.0105,0.01,0,0,0,0,0,0,-0.0406,-0.0353,-0.0335,-0.0317,-0.0281,-0.0219,-0.0208,-0.0178,-0.0134,-0.0128,-0.0062,-0.0046,-0.0004,0.0038,0.0029,0.0095,0.0119,0.0122,0.006,0.0055,0.005,0.0036,0.0075,0,0,0,0,0,-0.0416,-0.0403,-0.0349,-0.0337,-0.0321,-0.0267,-0.0245,-0.0216,-0.0168,-0.0148,-0.0096,-0.004,0.001,0.0039,0.0088,0.0126,0.0175,0.0138,0.0134,0.0129,0.0129,0.0204,0.0206,0.0183,0.0183,0.0183,0,0,-0.0429,-0.0399,-0.0391,-0.0346,-0.0313,-0.0298,-0.0253,-0.0226,-0.0211,-0.0139,-0.0105,-0.0054,0.0016,0.0055,0.0078,0.0091,0.016,0.013,0.0125,0.0127,0.0204,0.0206,0.0208,0.0183,0.0183,0.0183,0,0,-0.0455,-0.0424,-0.0425,-0.04,-0.0358,-0.0322,-0.0319,-0.0262,-0.0235,-0.0196,-0.0142,-0.0092,-0.0018,0.0033,0.0068,0.0071,0.0131,0.0083,0.0054,0.0126,0.0128,0.0131,0.0184,0.0193,0.0084,0.0083,0.0083,0,-0.0475,-0.0467,-0.042,-0.0417,-0.0402,-0.034,-0.0341,-0.0303,-0.0238,-0.0214,-0.0197,-0.0082,-0.0028,0.0033,0.0031,0.0061,0.0105,0.0065,0.0119,0.0123,0.0127,0.0182,0.0192,0.008,0.008,0.0081,0.0081,0,-0.0501,-0.0497,-0.0497,-0.0473,-0.045,-0.0441,-0.0386,-0.0359,-0.0319,-0.0273,-0.021,-0.0133,-0.0065,-0.004,-0.0004,0.0051,0.0073,0.0101,0.0128,0.0125,0.0183,0.0194,0.0075,0.0076,0.0077,0.0078,0,0,-0.0543,-0.0522,-0.0524,-0.0528,-0.0481,-0.0467,-0.0441,-0.0394,-0.0371,-0.0305,-0.0268,-0.0182,-0.0136,-0.0094,-0.0035,0.0028,0.0089,0.0067,0.0073,0.0112,0.0238,0.0262,0.0277,0.0126,0.0128,0.013,0.0262,0,-0.0582,-0.0603,-0.0571,-0.0587,-0.0593,-0.0533,-0.0514,-0.0461,-0.0403,-0.035,-0.0259,-0.0201,-0.0157,-0.0124,-0.0057,0.0054,0.0118,0.005,0.0243,0.0249,0.0264,0.0292,0.0267,0.0383,0.0274,0.0276,0.0277,0,-0.0621,-0.0632,-0.066,-0.065,-0.0645,-0.0639,-0.0593,-0.0564,-0.047,-0.0423,-0.0345,-0.0268,-0.0172,-0.0133,0.005,0.0003,0.0109,0.0198,0.0206,0.0264,0.0295,0.0374,0.041,0.0298,0.0296,0.0294,0.0293,0,-0.0686,-0.0692,-0.0721,-0.0718,-0.0693,-0.0689,-0.0667,-0.0591,-0.056,-0.0465,-0.0428,-0.0303,-0.0229,-0.009,0.0083,0.0071,0.0293,0.0303,0.0427,0.0429,0.0465,0.0468,0.0441,0.0441,0.044,0.044,0.044,0,-0.0743,-0.0764,-0.0758,-0.0775,-0.0803,-0.0755,-0.0753,-0.0707,-0.063,-0.058,-0.0475,-0.04,-0.0211,-0.0062,0.0079,0.029,0.0294,0.0431,0.0473,0.0437,0.0435,0.0407,0.0401,0.0445,0.0444,0.0443,0.0442,0,-0.0808,-0.0803,-0.0839,-0.0836,-0.0837,-0.0856,-0.0824,-0.081,-0.073,-0.0661,-0.0632,-0.0458,-0.0258,-0.0067,0.0184,0.0295,0.0486,0.0562,0.0496,0.0528,0.057,0.0559,0.0704,0.0706,0.0708,0.071,0.0711,0,-0.0843,-0.087,-0.0898,-0.0927,-0.093,-0.0944,-0.0947,-0.0876,-0.0844,-0.0681,-0.0647,-0.0442,-0.0271,0.008,0.0315,0.057,0.0566,0.0681,0.0656,0.0575,0.0601,0.0587,0.0574,0.0673,0.0673,0.0674,0.0675,0,-0.0907,-0.0916,-0.0946,-0.1013,-0.1038,-0.1056,-0.1045,-0.1029,-0.0912,-0.0821,-0.0643,-0.0488,-0.0138,0.015,0.046,0.0601,0.0629,0.0703,0.0669,0.0599,0.0554,0.0576,0.0563,0.0681,0.068,0.068,0.0679,0.0679,-0.0953,-0.0992,-0.1035,-0.1099,-0.113,-0.1151,-0.1173,-0.1107,-0.103,-0.0869,-0.0658,-0.0416,-0.0117,0.0312,0.0549,0.0734,0.0736,0.0774,0.0769,0.0764,0.0726,0.0685,0.083,0.083,0.083,0.083,0.0831,0,-0.1027,-0.1059,-0.1117,-0.1197,-0.1255,-0.124,-0.1227,-0.1211,-0.112,-0.0884,-0.0668,-0.0312,0.0022,0.0292,0.0608,0.0819,0.0794,0.083,0.0762,0.0756,0.0751,0.0709,0.081,0.0811,0.0811,0.0811,0,0,-0.1072,-0.114,-0.117,-0.129,-0.134,-0.1383,-0.1377,-0.1292,-0.1132,-0.0894,-0.0682,-0.0378,0.0004,0.0219,0.0501,0.0659,0.0644,0.0664,0.0664,0.0548,0.0539,0.071,0.0639,0,0,0,0,0]}],[{"header":{"parameterUnit":"m.s-1","parameterCategory":2,"la1":30.2991,"la2":30.254,"lo1":-89.0895,"lo2":-89.0444,"dy":0.0017,"dx":0.0017,"nx":28,"ny":28,"refTime":"2025-11-07T09:00:00:Z","depth":"4","parameterNumber":2,"parameterNumberName":"U-component_of_CURRENTS"},"data":[0,0,0,0,0,0,0,0,0,0,0,0,0,0,0,0,0,0,0,0,0,0,0,0,0,0,0,0,0,0,0,0,0,0,0,0,0,0,0,0,0,0,0,0,0,0,0,0,0,0,0,0,0,0,0,0,0,0,-0.1802,-0.1803,0,-0.1884,-0.1884,-0.1885,-0.1937,-0.1938,-0.1938,-0.1939,-0.201,-0.2012,-0.2013,0,0,0,0,0,0,0,0,0,0,0,0,0,-0.1663,-0.1665,-0.1802,-0.1803,-0.1804,-0.1884,-0.1885,-0.1885,-0.1937,-0.1938,-0.1938,-0.1939,-0.201,-0.2011,-0.2013,0,0,0,0,0,0,0,0,0,0,0,0,0,-0.173,-0.1666,-0.1802,-0.1841,-0.1846,-0.1883,-0.1885,-0.1886,-0.1937,-0.1938,-0.1938,-0.1939,-0.2009,-0.2011,-0.2013,-0.2012,0,0,-0.202,-0.2021,0,0,0,0,0,0,0,0,-0.1726,-0.1735,-0.1834,-0.1839,-0.1844,-0.1903,-0.1862,-0.1928,-0.1937,-0.19,-0.1939,-0.1939,-0.1974,-0.1979,-0.199,-0.2015,-0.2018,-0.202,-0.2022,-0.2023,-0.2023,0,0,0,0,0,0,0,-0.1721,-0.1731,-0.1832,-0.1836,-0.1841,-0.1846,-0.1856,-0.1874,-0.193,-0.1903,-0.1908,-0.192,-0.1977,-0.1988,-0.1992,-0.202,-0.202,-0.2022,-0.2023,-0.2024,-0.2124,-0.2125,0,0,0,0,0,0,-0.1717,-0.1727,-0.183,-0.1835,-0.1788,-0.1848,-0.1859,-0.1881,-0.193,-0.1939,-0.1919,-0.1922,-0.1984,-0.199,-0.1995,-0.2071,-0.2023,-0.2025,-0.2026,-0.2123,-0.2124,-0.2126,0,0,0,0,0,0,-0.1713,-0.1725,-0.1826,-0.1784,-0.1797,-0.185,-0.1874,-0.1883,-0.1929,-0.1943,-0.1951,-0.196,-0.1985,-0.1992,-0.2042,-0.2071,-0.2026,-0.2028,-0.2121,-0.2123,-0.2125,-0.2175,0,0,0,0,0,0,-0.1709,-0.1724,-0.1755,-0.1784,-0.18,-0.1871,-0.1874,-0.1884,-0.1934,-0.1939,-0.198,-0.1986,-0.1986,-0.2039,-0.2045,-0.2073,-0.2029,-0.212,-0.2122,-0.2125,-0.2172,-0.2178,-0.2184,0,0,0,0,0,-0.1704,-0.1739,-0.1756,-0.177,-0.1836,-0.1872,-0.1881,-0.1918,-0.1935,-0.1961,-0.1991,-0.1986,-0.2059,-0.2042,-0.2048,-0.2078,-0.2118,-0.2121,-0.2124,-0.2169,-0.2177,-0.2184,0,0,0,0,0,0,-0.1699,-0.1748,-0.1768,-0.1819,-0.1854,-0.1883,-0.1916,-0.1938,-0.1982,-0.1997,-0.2007,-0.2015,-0.2069,-0.2068,-0.205,-0.2114,-0.2086,-0.2091,-0.2118,-0.2126,-0.2132,-0.2126,-0.2031,0,0,0,0,0,-0.1711,-0.1751,-0.1791,-0.1834,-0.1854,-0.1891,-0.1918,-0.1943,-0.1977,-0.2,-0.2028,-0.2055,-0.2079,-0.21,-0.2121,-0.2159,-0.2134,-0.2181,-0.2187,-0.2193,-0.2192,-0.2187,-0.2193,-0.2136,-0.2136,-0.2136,0,0,-0.1723,-0.1755,-0.178,-0.1836,-0.1867,-0.1902,-0.191,-0.196,-0.1996,-0.1999,-0.2066,-0.2083,-0.2096,-0.2139,-0.2162,-0.2146,-0.2194,-0.2196,-0.2201,-0.2197,-0.2191,-0.2196,-0.2201,-0.2138,-0.2138,-0.2137,0,0,-0.1744,-0.1793,-0.1826,-0.1859,-0.1912,-0.1934,-0.1956,-0.2004,-0.2038,-0.2094,-0.2104,-0.214,-0.2186,-0.2195,-0.2204,-0.2258,-0.2229,-0.2272,-0.23,-0.2296,-0.23,-0.2303,-0.2266,-0.2265,-0.2273,-0.2273,-0.2273,0,-0.1757,-0.1804,-0.1841,-0.1875,-0.191,-0.1952,-0.1989,-0.2026,-0.2088,-0.2114,-0.2125,-0.2193,-0.2207,-0.2245,-0.2266,-0.2272,-0.2255,-0.2269,-0.2303,-0.2306,-0.2308,-0.2269,-0.2268,-0.2276,-0.2276,-0.2275,-0.2275,0,-0.1784,-0.1838,-0.1861,-0.1919,-0.196,-0.2003,-0.2051,-0.2101,-0.2144,-0.2173,-0.2236,-0.2256,-0.2289,-0.2304,-0.2304,-0.2337,-0.2313,-0.2311,-0.2279,-0.2317,-0.2273,-0.2271,-0.228,-0.2279,-0.2278,-0.2277,0,0,-0.1764,-0.1862,-0.1872,-0.1911,-0.199,-0.202,-0.2088,-0.2148,-0.2187,-0.2247,-0.2287,-0.2339,-0.235,-0.236,-0.2368,-0.237,-0.2371,-0.2355,-0.2354,-0.231,-0.2341,-0.2179,-0.216,-0.238,-0.2381,-0.2381,-0.2297,0,-0.1775,-0.1845,-0.1894,-0.1968,-0.2008,-0.2072,-0.2126,-0.2188,-0.2238,-0.2284,-0.2317,-0.2357,-0.2371,-0.2388,-0.2398,-0.2379,-0.2371,-0.2392,-0.2318,-0.2315,-0.216,-0.2155,-0.2382,-0.2295,-0.2295,-0.2294,-0.2294,0,-0.1774,-0.1825,-0.1899,-0.1994,-0.2017,-0.2069,-0.2157,-0.221,-0.228,-0.2316,-0.2365,-0.2385,-0.2412,-0.2411,-0.24,-0.2415,-0.2385,-0.2364,-0.236,-0.2189,-0.2149,-0.2255,-0.229,-0.229,-0.2291,-0.2291,-0.2291,0,-0.172,-0.1824,-0.1886,-0.192,-0.2031,-0.208,-0.214,-0.2222,-0.2262,-0.2334,-0.2356,-0.2399,-0.241,-0.2401,-0.2367,-0.2389,-0.2323,-0.2341,-0.2163,-0.215,-0.2302,-0.2299,-0.2322,-0.2322,-0.2322,-0.2322,-0.2323,0,-0.1694,-0.1746,-0.1872,-0.1903,-0.197,-0.206,-0.2128,-0.219,-0.2266,-0.2287,-0.2367,-0.2365,-0.2412,-0.2383,-0.2357,-0.223,-0.2312,-0.215,-0.2116,-0.2323,-0.2324,-0.2298,-0.2297,-0.2319,-0.232,-0.2321,-0.2321,0,-0.1617,-0.1707,-0.1779,-0.1907,-0.1948,-0.1993,-0.2112,-0.2144,-0.2236,-0.2261,-0.2282,-0.2338,-0.2286,-0.2289,-0.2247,-0.2185,-0.2101,-0.2039,-0.2228,-0.2209,-0.1935,-0.1938,-0.1828,-0.1821,-0.1816,-0.1811,-0.1807,0,-0.1578,-0.1614,-0.1755,-0.179,-0.1853,-0.194,-0.1985,-0.2108,-0.2132,-0.2212,-0.2194,-0.2194,-0.2203,-0.1993,-0.2034,-0.1939,-0.1929,-0.1881,-0.1939,-0.1905,-0.1884,-0.1895,-0.1905,-0.1799,-0.1797,-0.1796,-0.1794,0,-0.1493,-0.1562,-0.1617,-0.1688,-0.1753,-0.1809,-0.1885,-0.1888,-0.1999,-0.2109,-0.2031,-0.1986,-0.1914,-0.1865,-0.1794,-0.1744,-0.1913,-0.1824,-0.1836,-0.1891,-0.1869,-0.1856,-0.1872,-0.1775,-0.1778,-0.178,-0.1781,0,-0.1417,-0.1434,-0.151,-0.1551,-0.1626,-0.163,-0.1703,-0.1715,-0.1754,-0.1857,-0.182,-0.1818,-0.1877,-0.1759,-0.1698,-0.1624,-0.1616,-0.1588,-0.1613,-0.1634,-0.1612,-0.1558,-0.1319,0,0,0,0,0,-0.1325,-0.1324,-0.1358,-0.1383,-0.1449,-0.1484,-0.1601,-0.1676,-0.1793,-0.1682,-0.1746,-0.1667,-0.1572,-0.1584,-0.1462,-0.1615,-0.1626,-0.1471,-0.1609,-0.167,-0.1692,-0.1685,0,0,0,0,0,0,-0.1262,-0.1296,-0.1302,-0.1225,-0.1205,-0.125,-0.132,-0.141,-0.1368,-0.1494,-0.1442,-0.1547,-0.1471,-0.1575,-0.1408,-0.1413,-0.1466,-0.1494,-0.1489,-0.1657,-0.1677,-0.1695,-0.1695,0,0,0,0,0]},{"header":{"parameterUnit":"m.s-1","parameterCategory":2,"la1":30.2991,"la2":30.254,"lo1":-89.0895,"lo2":-89.0444,"dy":0.0017,"dx":0.0017,"nx":28,"ny":28,"refTime":"2025-11-07T09:00:00:Z","depth":"4","parameterNumber":3,"parameterNumberName":"V-component_of_CURRENTS"},"data":[0,0,0,0,0,0,0,0,0,0,0,0,0,0,0,0,0,0,0,0,0,0,0,0,0,0,0,0,0,0,0,0,0,0,0,0,0,0,0,0,0,0,0,0,0,0,0,0,0,0,0,0,0,0,0,0,0,0,-0.026,-0.0259,0,-0.0184,-0.0183,-0.0182,-0.0147,-0.0147,-0.0147,-0.0147,-0.0034,-0.0031,-0.0028,0,0,0,0,0,0,0,0,0,0,0,0,0,-0.0324,-0.0324,-0.026,-0.0259,-0.0258,-0.0184,-0.0183,-0.0182,-0.0147,-0.0147,-0.0147,-0.0147,-0.0035,-0.0032,-0.0028,0,0,0,0,0,0,0,0,0,0,0,0,0,-0.0277,-0.0323,-0.026,-0.0232,-0.0229,-0.0184,-0.0183,-0.0181,-0.0147,-0.0147,-0.0147,-0.0147,-0.0036,-0.0032,-0.0027,0.0005,0,0,-0.0013,-0.0011,0,0,0,0,0,0,0,0,-0.028,-0.0274,-0.0237,-0.0234,-0.023,-0.0175,-0.0164,-0.0117,-0.0147,-0.0177,-0.0147,-0.0147,-0.0078,-0.007,-0.0055,0.001,0.0015,-0.0013,-0.001,-0.0008,-0.0007,0,0,0,0,0,0,0,-0.0283,-0.0277,-0.0229,-0.0236,-0.0232,-0.0206,-0.02,-0.0155,-0.0127,-0.0175,-0.0172,-0.0164,-0.0076,-0.006,-0.0052,0.0017,-0.0013,-0.0009,-0.0006,-0.0004,0.0109,0.0109,0,0,0,0,0,0,-0.0296,-0.0281,-0.0232,-0.0227,-0.0256,-0.0205,-0.0198,-0.0192,-0.0128,-0.0119,-0.0164,-0.0163,-0.0068,-0.0058,-0.0048,-0.0017,-0.0008,-0.0003,-0.0001,0.0109,0.0109,0.0109,0,0,0,0,0,0,-0.0297,-0.0292,-0.0235,-0.0252,-0.0243,-0.0204,-0.0198,-0.0191,-0.0177,-0.012,-0.011,-0.0158,-0.0067,-0.0055,-0.0013,-0.0012,-0.0001,0.0003,0.0109,0.0109,0.0109,0.0053,0,0,0,0,0,0,-0.03,-0.0293,-0.0295,-0.0253,-0.0243,-0.0216,-0.0197,-0.0189,-0.0172,-0.017,-0.0112,-0.0101,-0.0067,-0.0021,-0.0009,-0.0005,0.0006,0.0108,0.0109,0.0109,0.0054,0.0051,0.0048,0,0,0,0,0,-0.0302,-0.0303,-0.0296,-0.029,-0.0246,-0.0216,-0.0209,-0.018,-0.0172,-0.0168,-0.013,-0.0103,-0.001,-0.0017,-0.0003,0.0002,0.0108,0.0109,0.0109,0.0056,0.0052,0.0048,0,0,0,0,0,0,-0.0332,-0.0299,-0.0289,-0.0281,-0.0255,-0.0211,-0.0204,-0.0184,-0.015,-0.0149,-0.0097,-0.0084,-0.0049,-0.0014,-0.0023,0.0036,0.0053,0.0056,0.0007,0.0004,0.0001,-0.0011,0.001,0,0,0,0,0,-0.034,-0.0334,-0.0298,-0.0293,-0.0282,-0.0245,-0.023,-0.0211,-0.0175,-0.0161,-0.0121,-0.0076,-0.0034,-0.001,0.0031,0.0067,0.0104,0.0079,0.0076,0.0073,0.0072,0.0132,0.0134,0.0111,0.0111,0.0111,0,0,-0.0351,-0.0332,-0.0329,-0.0299,-0.0277,-0.0266,-0.0236,-0.0218,-0.0207,-0.0152,-0.0126,-0.0085,-0.0028,0.0008,0.0027,0.0037,0.0098,0.0073,0.007,0.0072,0.0133,0.0135,0.0137,0.0111,0.0111,0.0111,0,0,-0.037,-0.0354,-0.0355,-0.0337,-0.0309,-0.0284,-0.0282,-0.0242,-0.0224,-0.0191,-0.0151,-0.0109,-0.0048,-0.0006,0.0024,0.0032,0.0077,0.0042,0.0021,0.0079,0.0081,0.0084,0.0124,0.0131,0.0043,0.0043,0.0043,0,-0.0386,-0.0383,-0.0352,-0.0349,-0.034,-0.0297,-0.0299,-0.027,-0.0222,-0.0205,-0.0193,-0.0098,-0.0053,-0.0,-0.0,0.0025,0.0058,0.0028,0.0074,0.0078,0.0081,0.0122,0.0131,0.004,0.004,0.0041,0.0041,0,-0.0402,-0.0404,-0.0404,-0.0389,-0.0373,-0.0367,-0.0328,-0.0309,-0.0282,-0.0248,-0.0198,-0.0133,-0.0079,-0.0056,-0.0024,0.0023,0.0038,0.006,0.008,0.008,0.0124,0.0133,0.0036,0.0037,0.0038,0.0039,0,0,-0.0433,-0.042,-0.0423,-0.0429,-0.0397,-0.0388,-0.0368,-0.0335,-0.0322,-0.0269,-0.0242,-0.0166,-0.0133,-0.0097,-0.0048,0.0007,0.0058,0.0038,0.0042,0.007,0.0175,0.0148,0.0156,0.0088,0.0089,0.009,0.0191,0,-0.046,-0.0477,-0.0455,-0.047,-0.0476,-0.0436,-0.0423,-0.0387,-0.0345,-0.0308,-0.0232,-0.0186,-0.0147,-0.0121,-0.0063,0.0027,0.0082,0.0028,0.0177,0.0181,0.0152,0.0166,0.0095,0.0198,0.02,0.0202,0.0203,0,-0.0484,-0.0494,-0.052,-0.0519,-0.0518,-0.0519,-0.0493,-0.0473,-0.0405,-0.037,-0.031,-0.0247,-0.0166,-0.013,0.002,-0.0018,0.007,0.0145,0.0151,0.0153,0.0172,0.0203,0.0221,0.0219,0.0218,0.0217,0.0216,0,-0.0528,-0.0539,-0.0567,-0.0566,-0.0554,-0.056,-0.055,-0.0499,-0.0479,-0.0409,-0.0385,-0.028,-0.0221,-0.0105,0.0039,0.0032,0.021,0.0222,0.0285,0.0284,0.0302,0.0299,0.0338,0.0338,0.0338,0.0338,0.0337,0,-0.0561,-0.0585,-0.0596,-0.0612,-0.0646,-0.0614,-0.0627,-0.0596,-0.0544,-0.0512,-0.0427,-0.0371,-0.0209,-0.0089,0.0032,0.0179,0.0205,0.0284,0.0312,0.0275,0.0267,0.0309,0.0304,0.0341,0.0341,0.034,0.0339,0,-0.06,-0.0607,-0.0644,-0.0659,-0.067,-0.0694,-0.069,-0.0687,-0.0633,-0.0589,-0.0567,-0.0427,-0.0271,-0.0112,0.0098,0.0168,0.0315,0.0369,0.0308,0.0331,0.035,0.0341,0.0434,0.0434,0.0434,0.0434,0.0434,0,-0.0619,-0.0644,-0.0693,-0.0728,-0.0742,-0.0771,-0.0787,-0.0743,-0.0724,-0.0612,-0.0588,-0.043,-0.0324,-0.0061,0.0103,0.0317,0.0352,0.0407,0.0384,0.0344,0.0362,0.0353,0.0345,0.0434,0.0434,0.0434,0.0434,0,-0.0656,-0.068,-0.0713,-0.0792,-0.0832,-0.0864,-0.0874,-0.0861,-0.0783,-0.0735,-0.0585,-0.0433,-0.0255,-0.0054,0.0115,0.0271,0.035,0.0407,0.0408,0.0387,0.0345,0.0361,0.0353,0.0433,0.0433,0.0434,0.0434,0,-0.0689,-0.0726,-0.0781,-0.0844,-0.0905,-0.0937,-0.0933,-0.0882,-0.0843,-0.0697,-0.0639,-0.0433,-0.0292,-0.0074,0.0083,0.0223,0.0254,0.0277,0.0286,0.0288,0.0208,0.0131,0.0181,0,0,0,0,0,-0.0718,-0.0764,-0.0828,-0.0898,-0.096,-0.0989,-0.0981,-0.0953,-0.0868,-0.0767,-0.0695,-0.0516,-0.0255,-0.0135,0.0002,0.0054,0.025,0.0214,0.0273,0.0433,0.0433,0.0362,0,0,0,0,0,0,-0.0745,-0.0807,-0.0834,-0.0931,-0.0986,-0.1042,-0.1037,-0.0976,-0.0901,-0.079,-0.0644,-0.0521,-0.0268,-0.0339,-0.0009,0.0037,0.0084,0.0353,0.0355,0.0433,0.0433,0.0433,0.036,0,0,0,0,0]}]]